{"data":{"norad_id":64588,"intl_designator":"2025-135BN","name":"BIFROST-DNK","alt_names":[],"object_type":"PAYLOAD","status":"ACTIVE","operator":null,"country":"DEN","launch_date":"2025-06-23","launch_site_code":"AFWTR","launch_vehicle":null,"mission":null,"orbit_class":"UNKNOWN","rcs_meters":null,"size_class":null,"mass_kg":null,"dimensions":null,"purposes":[],"wikipedia_slug":null,"has_3d_model":false,"image_url":null,"decayed_at":null,"tle_current":{"epoch":"2026-05-25T04:14:10.514112Z","epoch_age_seconds":53156,"freshness":"FRESH","line1":"1 64588U 25135BN  26145.17651058  .00002202  00000+0  20921-3 0  9990","line2":"2 64588  97.7713 260.0835 0005417  72.8253 287.3560 14.94512098 50475","mean_motion":14.94512098,"eccentricity":0.0005417,"inclination_deg":97.7713,"raan_deg":260.0835,"arg_perigee_deg":72.8253,"mean_anomaly_deg":287.356,"bstar":0.00020921,"rev_number":5047,"period_min":96.352515441464,"perigee_km":580.11623641601,"apogee_km":587.65889382986,"semimajor_km":6962.0245651229,"source":"CELESTRAK","updated_at":"2026-05-25T13:38:04.654940Z"}}}